Time,TemperatureF,DewpointF,PressureIn,WindDirection,WindDirectionDegrees,WindSpeedMPH,WindSpeedGustMPH,Humidity,HourlyPrecipIn,Conditions,Clouds,dailyrainin,SoftwareType,DateUTC
2013-03-28 00:04:00,41.7,6.7,29.41,WSW,258,2.2,5.8,23,0.00,,---,0.00,VWS V13.01,2013-03-28 04:04:00,
2013-03-28 00:09:00,41.5,6.5,29.41,South,181,6.3,8.3,23,0.00,,---,0.00,VWS V13.01,2013-03-28 04:09:00,
2013-03-28 00:14:00,41.5,6.5,29.41,SW,221,4.0,8.1,23,0.00,,---,0.00,VWS V13.01,2013-03-28 04:14:00,
2013-03-28 00:19:00,41.7,6.7,29.41,SSE,154,3.1,8.7,23,0.00,,---,0.00,VWS V13.01,2013-03-28 04:19:00,
2013-03-28 00:29:00,41.5,6.5,29.41,SW,219,2.7,6.3,23,0.00,,---,0.00,VWS V13.01,2013-03-28 04:29:00,
2013-03-28 00:34:00,41.5,6.5,29.41,SSE,153,2.7,6.3,23,0.00,,---,0.00,VWS V13.01,2013-03-28 04:34:00,
2013-03-28 00:39:00,41.4,6.4,29.41,South,182,7.6,8.7,23,0.00,,---,0.00,VWS V13.01,2013-03-28 04:39:00,
2013-03-28 00:44:00,41.4,6.4,29.41,SSW,201,3.6,7.6,23,0.00,,---,0.00,VWS V13.01,2013-03-28 04:44:00,
2013-03-28 00:49:00,41.2,6.2,29.41,SSW,212,3.1,6.3,23,0.00,,---,0.00,VWS V13.01,2013-03-28 04:49:00,
2013-03-28 00:54:00,41.2,6.2,29.41,SW,215,4.5,5.8,23,0.00,,---,0.00,VWS V13.01,2013-03-28 04:54:00,
2013-03-28 00:59:00,41.0,6.1,29.41,SW,215,3.1,5.8,23,0.00,,---,0.00,VWS V13.01,2013-03-28 04:59:00,
2013-03-28 01:04:00,40.8,5.9,29.41,SW,215,3.6,4.9,23,0.00,,---,0.00,VWS V13.01,2013-03-28 05:04:00,
2013-03-28 01:09:00,40.5,5.6,29.41,SW,215,2.7,4.5,23,0.00,,---,0.00,VWS V13.01,2013-03-28 05:09:00,
2013-03-28 01:14:00,40.1,5.3,29.41,SW,216,4.0,6.3,23,0.00,,---,0.00,VWS V13.01,2013-03-28 05:14:00,
2013-03-28 01:19:00,39.7,7.7,29.38,South,184,4.0,7.6,26,0.00,,---,0.00,VWS V13.01,2013-03-28 05:19:00,
2013-03-28 01:24:00,39.2,7.2,29.38,South,189,3.1,7.6,26,0.00,,---,0.00,VWS V13.01,2013-03-28 05:24:00,
2013-03-28 01:29:00,38.8,6.9,29.38,SSW,194,2.7,6.3,26,0.00,,---,0.00,VWS V13.01,2013-03-28 05:29:00,
2013-03-28 01:34:00,38.7,9.2,29.41,SW,214,4.0,6.3,29,0.00,,---,0.00,VWS V13.01,2013-03-28 05:34:00,
2013-03-28 01:44:00,38.1,8.7,29.41,SSW,195,3.1,4.9,29,0.00,,---,0.00,VWS V13.01,2013-03-28 05:44:00,
2013-03-28 01:49:00,37.9,8.5,29.41,South,186,0.0,5.8,29,0.00,,---,0.00,VWS V13.01,2013-03-28 05:49:00,
2013-03-28 01:54:00,37.9,8.5,29.41,SSW,199,3.1,5.4,29,0.00,,---,0.00,VWS V13.01,2013-03-28 05:54:00,
2013-03-28 01:59:00,37.8,8.4,29.41,SSW,199,3.6,3.6,29,0.00,,---,0.00,VWS V13.01,2013-03-28 05:59:00,
2013-03-28 02:04:00,37.8,8.4,29.41,SSW,198,3.6,4.9,29,0.00,,---,0.00,VWS V13.01,2013-03-28 06:04:00,
2013-03-28 02:09:00,37.6,8.2,29.41,SW,230,2.7,5.4,29,0.00,,---,0.00,VWS V13.01,2013-03-28 06:09:00,
2013-03-28 02:14:00,37.4,8.1,29.41,SSW,193,2.2,5.8,29,0.00,,---,0.00,VWS V13.01,2013-03-28 06:14:00,
2013-03-28 02:19:00,37.4,8.1,29.41,SW,214,3.6,4.9,29,0.00,,---,0.00,VWS V13.01,2013-03-28 06:19:00,
2013-03-28 02:24:00,37.2,8.6,29.41,SSW,199,0.0,5.4,30,0.00,,---,0.00,VWS V13.01,2013-03-28 06:24:00,
2013-03-28 02:29:00,37.0,8.5,29.41,SSW,207,0.0,4.0,30,0.00,,---,0.00,VWS V13.01,2013-03-28 06:29:00,
2013-03-28 02:34:00,37.0,8.5,29.41,SSW,194,4.0,5.8,30,0.00,,---,0.00,VWS V13.01,2013-03-28 06:34:00,
2013-03-28 02:39:00,36.9,8.3,29.41,SW,215,3.6,5.8,30,0.00,,---,0.00,VWS V13.01,2013-03-28 06:39:00,
2013-03-28 02:44:00,36.9,8.3,29.41,SW,221,3.1,4.9,30,0.00,,---,0.00,VWS V13.01,2013-03-28 06:44:00,
2013-03-28 02:49:00,36.9,8.3,29.38,SW,235,2.2,5.4,30,0.00,,---,0.00,VWS V13.01,2013-03-28 06:49:00,
2013-03-28 02:54:00,36.7,8.2,29.38,SSW,212,3.6,6.3,30,0.00,,---,0.00,VWS V13.01,2013-03-28 06:54:00,
2013-03-28 02:59:00,36.7,8.2,29.38,SSW,199,3.6,5.4,30,0.00,,---,0.00,VWS V13.01,2013-03-28 06:59:00,
2013-03-28 03:04:00,36.7,8.2,29.38,SSW,206,4.0,6.3,30,0.00,,---,0.00,VWS V13.01,2013-03-28 07:04:00,
2013-03-28 03:09:00,36.5,8.0,29.38,SSW,196,4.0,4.0,30,0.00,,---,0.00,VWS V13.01,2013-03-28 07:09:00,
2013-03-28 03:14:00,36.5,8.8,29.38,South,175,3.6,5.8,31,0.00,,---,0.00,VWS V13.01,2013-03-28 07:14:00,
2013-03-28 03:19:00,36.3,8.6,29.38,South,175,2.7,4.0,31,0.00,,---,0.00,VWS V13.01,2013-03-28 07:19:00,
2013-03-28 03:29:00,36.3,9.3,29.38,South,176,3.1,3.6,32,0.00,,---,0.00,VWS V13.01,2013-03-28 07:29:00,
2013-03-28 03:34:00,36.0,9.0,29.38,North,357,3.1,3.6,32,0.00,,---,0.00,VWS V13.01,2013-03-28 07:34:00,
2013-03-28 03:39:00,35.8,8.8,29.38,SSW,200,2.2,5.4,32,0.00,,---,0.00,VWS V13.01,2013-03-28 07:39:00,
2013-03-28 03:44:00,35.8,9.5,29.38,SW,224,3.1,4.0,33,0.00,,---,0.00,VWS V13.01,2013-03-28 07:44:00,
2013-03-28 03:49:00,36.0,9.7,29.38,SSW,210,3.1,6.3,33,0.00,,---,0.00,VWS V13.01,2013-03-28 07:49:00,
2013-03-28 03:54:00,36.1,9.8,29.38,SSW,205,2.2,7.6,33,0.00,,---,0.00,VWS V13.01,2013-03-28 07:54:00,
2013-03-28 03:59:00,36.1,9.8,29.38,SSW,210,5.8,8.7,33,0.00,,---,0.00,VWS V13.01,2013-03-28 07:59:00,
2013-03-28 04:04:00,36.1,9.8,29.38,SW,216,4.0,5.8,33,0.00,,---,0.00,VWS V13.01,2013-03-28 08:04:00,
2013-03-28 04:09:00,36.3,10.0,29.38,SW,217,5.4,5.4,33,0.00,,---,0.00,VWS V13.01,2013-03-28 08:09:00,
2013-03-28 04:14:00,36.3,10.0,29.38,SSW,203,6.3,8.7,33,0.00,,---,0.00,VWS V13.01,2013-03-28 08:14:00,
2013-03-28 04:19:00,36.3,10.0,29.38,South,182,3.6,7.6,33,0.00,,---,0.00,VWS V13.01,2013-03-28 08:19:00,
2013-03-28 04:24:00,36.3,10.0,29.38,North,357,4.0,6.3,33,0.00,,---,0.00,VWS V13.01,2013-03-28 08:24:00,
2013-03-28 04:29:00,36.3,10.0,29.38,North,357,2.2,4.0,33,0.00,,---,0.00,VWS V13.01,2013-03-28 08:29:00,
2013-03-28 04:34:00,36.1,9.8,29.38,SSW,192,0.0,6.3,33,0.00,,---,0.00,VWS V13.01,2013-03-28 08:34:00,
2013-03-28 04:39:00,36.3,10.0,29.38,SW,220,2.7,6.3,33,0.00,,---,0.00,VWS V13.01,2013-03-28 08:39:00,
2013-03-28 04:44:00,36.3,10.0,29.38,South,191,3.1,6.3,33,0.00,,---,0.00,VWS V13.01,2013-03-28 08:44:00,
2013-03-28 04:49:00,36.3,10.6,29.38,North,357,3.6,4.9,34,0.00,,---,0.00,VWS V13.01,2013-03-28 08:49:00,
2013-03-28 04:59:00,36.3,10.6,29.38,North,357,2.2,3.6,34,0.00,,---,0.00,VWS V13.01,2013-03-28 08:59:00,
2013-03-28 05:04:00,36.1,10.5,29.38,North,357,3.1,3.6,34,0.00,,---,0.00,VWS V13.01,2013-03-28 09:04:00,
2013-03-28 05:09:00,36.0,10.3,29.38,WSW,253,0.0,3.1,34,0.00,,---,0.00,VWS V13.01,2013-03-28 09:09:00,
2013-03-28 05:14:00,35.4,10.5,29.38,WSW,254,3.1,3.1,35,0.00,,---,0.00,VWS V13.01,2013-03-28 09:14:00,
2013-03-28 05:19:00,35.1,10.8,29.38,North,357,0.0,4.0,36,0.00,,---,0.00,VWS V13.01,2013-03-28 09:19:00,
2013-03-28 05:24:00,34.9,10.6,29.38,SW,230,0.0,3.6,36,0.00,,---,0.00,VWS V13.01,2013-03-28 09:24:00,
2013-03-28 05:29:00,34.5,10.9,29.38,North,357,2.7,4.9,37,0.00,,---,0.00,VWS V13.01,2013-03-28 09:29:00,
2013-03-28 05:34:00,34.3,11.4,29.38,SW,231,0.0,4.0,38,0.00,,---,0.00,VWS V13.01,2013-03-28 09:34:00,
2013-03-28 05:39:00,34.3,11.4,29.38,North,357,0.0,4.0,38,0.00,,---,0.00,VWS V13.01,2013-03-28 09:39:00,
2013-03-28 05:44:00,34.3,11.4,29.38,SW,231,0.0,0.0,38,0.00,,---,0.00,VWS V13.01,2013-03-28 09:44:00,
2013-03-28 05:49:00,34.3,12.0,29.38,SW,231,0.0,3.6,39,0.00,,---,0.00,VWS V13.01,2013-03-28 09:49:00,
2013-03-28 05:54:00,34.2,11.8,29.38,SW,230,0.0,4.9,39,0.00,,---,0.00,VWS V13.01,2013-03-28 09:54:00,
2013-03-28 05:59:00,34.2,12.4,29.38,SW,230,2.7,4.0,40,0.00,,---,0.00,VWS V13.01,2013-03-28 09:59:00,
2013-03-28 06:04:00,34.0,12.2,29.38,SW,230,0.0,3.1,40,0.00,,---,0.00,VWS V13.01,2013-03-28 10:04:00,
2013-03-28 06:09:00,33.8,12.1,29.38,SW,230,2.7,2.7,40,0.00,,---,0.00,VWS V13.01,2013-03-28 10:09:00,
2013-03-28 06:14:00,33.8,12.1,29.38,SW,230,0.0,2.7,40,0.00,,---,0.00,VWS V13.01,2013-03-28 10:14:00,
2013-03-28 06:19:00,33.8,12.1,29.38,SW,231,0.0,4.9,40,0.00,,---,0.00,VWS V13.01,2013-03-28 10:19:00,
2013-03-28 06:24:00,33.8,12.1,29.38,SW,230,3.1,4.0,40,0.00,,---,0.00,VWS V13.01,2013-03-28 10:24:00,
2013-03-28 06:29:00,34.0,12.2,29.38,SW,231,0.0,4.0,40,0.00,,---,0.00,VWS V13.01,2013-03-28 10:29:00,
2013-03-28 06:39:00,34.3,13.1,29.38,SW,231,3.1,4.0,41,0.00,,---,0.00,VWS V13.01,2013-03-28 10:39:00,
2013-03-28 06:44:00,34.5,12.7,29.38,SSW,206,3.6,5.8,40,0.00,,---,0.00,VWS V13.01,2013-03-28 10:44:00,
2013-03-28 06:49:00,34.9,13.0,29.38,West,263,0.0,5.4,40,0.00,,---,0.00,VWS V13.01,2013-03-28 10:49:00,
2013-03-28 06:59:00,35.6,13.1,29.38,SSW,209,3.6,5.8,39,0.00,,---,0.00,VWS V13.01,2013-03-28 10:59:00,
2013-03-28 07:04:00,36.1,13.0,29.41,WSW,237,0.0,8.3,38,0.00,,---,0.00,VWS V13.01,2013-03-28 11:04:00,
2013-03-28 07:09:00,36.5,12.7,29.41,SW,220,3.1,6.3,37,0.00,,---,0.00,VWS V13.01,2013-03-28 11:09:00,
2013-03-28 07:14:00,37.2,13.4,29.41,SW,216,2.2,4.0,37,0.00,,---,0.00,VWS V13.01,2013-03-28 11:14:00,
2013-03-28 07:19:00,38.1,12.2,29.41,SW,233,5.4,5.8,34,0.00,,---,0.00,VWS V13.01,2013-03-28 11:19:00,
2013-03-28 07:29:00,39.0,11.7,29.41,SW,220,5.4,6.3,32,0.00,,---,0.00,VWS V13.01,2013-03-28 11:29:00,
2013-03-28 07:34:00,39.4,11.3,29.41,West,274,5.8,7.6,31,0.00,,---,0.00,VWS V13.01,2013-03-28 11:34:00,
2013-03-28 07:39:00,39.2,11.1,29.41,WSW,253,5.4,11.0,31,0.00,,---,0.00,VWS V13.01,2013-03-28 11:39:00,
2013-03-28 07:44:00,38.8,10.8,29.41,SW,224,0.0,5.8,31,0.00,,---,0.00,VWS V13.01,2013-03-28 11:44:00,
2013-03-28 07:49:00,38.7,11.4,29.41,WSW,245,5.8,5.8,32,0.00,,---,0.00,VWS V13.01,2013-03-28 11:49:00,
2013-03-28 07:54:00,38.8,11.5,29.41,SW,219,3.6,5.8,32,0.00,,---,0.00,VWS V13.01,2013-03-28 11:54:00,
2013-03-28 07:59:00,38.8,11.5,29.41,SSW,201,5.4,11.0,32,0.00,,---,0.00,VWS V13.01,2013-03-28 11:59:00,
2013-03-28 08:04:00,38.8,11.5,29.41,South,179,7.6,8.7,32,0.00,,---,0.00,VWS V13.01,2013-03-28 12:04:00,
2013-03-28 08:09:00,39.0,11.7,29.41,SSW,213,2.7,8.7,32,0.00,,---,0.00,VWS V13.01,2013-03-28 12:09:00,
2013-03-28 08:14:00,39.4,12.0,29.41,SSW,204,4.0,8.3,32,0.00,,---,0.00,VWS V13.01,2013-03-28 12:14:00,
2013-03-28 08:24:00,39.4,11.3,29.41,West,265,5.8,7.6,31,0.00,,---,0.00,VWS V13.01,2013-03-28 12:24:00,
2013-03-28 08:29:00,39.7,11.6,29.41,South,180,4.9,7.6,31,0.00,,---,0.00,VWS V13.01,2013-03-28 12:29:00,
2013-03-28 08:34:00,40.1,11.9,29.41,SSW,201,5.4,11.0,31,0.00,,---,0.00,VWS V13.01,2013-03-28 12:34:00,
2013-03-28 08:39:00,40.3,12.1,29.41,SSW,213,6.3,7.6,31,0.00,,---,0.00,VWS V13.01,2013-03-28 12:39:00,
2013-03-28 08:44:00,40.6,12.4,29.41,South,170,4.9,8.3,31,0.00,,---,0.00,VWS V13.01,2013-03-28 12:44:00,
2013-03-28 08:49:00,41.2,12.1,29.41,South,189,4.0,8.1,30,0.00,,---,0.00,VWS V13.01,2013-03-28 12:49:00,
2013-03-28 08:54:00,41.2,12.1,29.41,SW,215,6.7,8.7,30,0.00,,---,0.00,VWS V13.01,2013-03-28 12:54:00,
2013-03-28 08:59:00,41.5,12.4,29.41,SSW,204,2.7,7.6,30,0.00,,---,0.00,VWS V13.01,2013-03-28 12:59:00,
2013-03-28 09:04:00,41.7,12.6,29.44,SSW,202,4.0,5.8,30,0.00,,---,0.00,VWS V13.01,2013-03-28 13:04:00,
2013-03-28 09:09:00,41.4,12.3,29.44,SSW,198,4.5,8.3,30,0.00,,---,0.00,VWS V13.01,2013-03-28 13:09:00,
2013-03-28 09:14:00,41.9,12.7,29.44,SSW,193,5.4,9.2,30,0.00,,---,0.00,VWS V13.01,2013-03-28 13:14:00,
2013-03-28 09:19:00,41.9,12.7,29.44,West,275,10.5,13.2,30,0.00,,---,0.00,VWS V13.01,2013-03-28 13:19:00,
2013-03-28 09:24:00,42.3,13.1,29.44,West,263,8.7,12.8,30,0.00,,---,0.00,VWS V13.01,2013-03-28 13:24:00,
2013-03-28 09:29:00,42.3,13.1,29.44,South,177,6.3,14.5,30,0.00,,---,0.00,VWS V13.01,2013-03-28 13:29:00,
2013-03-28 09:34:00,42.6,13.4,29.44,West,269,11.9,11.9,30,0.00,,---,0.00,VWS V13.01,2013-03-28 13:34:00,
2013-03-28 09:39:00,42.8,14.3,29.44,SSW,200,11.0,11.9,31,0.00,,---,0.00,VWS V13.01,2013-03-28 13:39:00,
2013-03-28 09:44:00,43.7,14.3,29.44,South,174,4.9,12.8,30,0.00,,---,0.00,VWS V13.01,2013-03-28 13:44:00,
2013-03-28 09:49:00,44.1,14.6,29.47,SSW,193,5.4,10.1,30,0.00,,---,0.00,VWS V13.01,2013-03-28 13:49:00,
2013-03-28 09:54:00,43.5,13.4,29.47,SSW,207,7.6,11.9,29,0.00,,---,0.00,VWS V13.01,2013-03-28 13:54:00,
2013-03-28 09:59:00,43.9,13.7,29.47,West,275,3.1,8.3,29,0.00,,---,0.00,VWS V13.01,2013-03-28 13:59:00,
2013-03-28 10:04:00,44.1,13.9,29.47,South,172,3.6,11.0,29,0.00,,---,0.00,VWS V13.01,2013-03-28 14:04:00,
2013-03-28 10:14:00,44.4,14.2,29.47,SSE,151,4.9,12.3,29,0.00,,---,0.00,VWS V13.01,2013-03-28 14:14:00,
2013-03-28 10:19:00,43.7,14.3,29.47,West,260,4.0,8.7,30,0.00,,---,0.00,VWS V13.01,2013-03-28 14:19:00,
2013-03-28 10:24:00,44.8,14.5,29.47,West,263,8.3,8.3,29,0.00,,---,0.00,VWS V13.01,2013-03-28 14:24:00,
2013-03-28 10:29:00,44.8,14.5,29.47,WNW,287,8.1,15.9,29,0.00,,---,0.00,VWS V13.01,2013-03-28 14:29:00,
2013-03-28 10:34:00,44.6,14.3,29.47,SSE,163,3.6,11.0,29,0.00,,---,0.00,VWS V13.01,2013-03-28 14:34:00,
2013-03-28 10:39:00,45.0,14.6,29.47,SW,224,5.8,8.7,29,0.00,,---,0.00,VWS V13.01,2013-03-28 14:39:00,
2013-03-28 10:49:00,44.4,14.9,29.50,NW,321,5.4,10.5,30,0.00,,---,0.00,VWS V13.01,2013-03-28 14:49:00,
2013-03-28 10:54:00,44.8,16.0,29.50,SSW,198,5.4,10.1,31,0.00,,---,0.00,VWS V13.01,2013-03-28 14:54:00,
2013-03-28 10:59:00,44.8,14.5,29.50,NW,305,5.8,11.0,29,0.00,,---,0.00,VWS V13.01,2013-03-28 14:59:00,
2013-03-28 11:09:00,43.5,14.9,29.50,South,183,7.6,13.6,31,0.00,,---,0.00,VWS V13.01,2013-03-28 15:09:00,
2013-03-28 11:14:00,43.5,15.6,29.50,SW,221,5.4,10.1,32,0.00,,---,0.00,VWS V13.01,2013-03-28 15:14:00,
2013-03-28 11:24:00,44.8,17.5,29.50,South,185,5.4,13.2,33,0.00,,---,0.00,VWS V13.01,2013-03-28 15:24:00,
2013-03-28 11:29:00,45.9,18.4,29.50,South,184,12.3,13.2,33,0.00,,---,0.00,VWS V13.01,2013-03-28 15:29:00,
2013-03-28 11:34:00,45.5,16.6,29.50,SSW,198,8.1,12.3,31,0.00,,---,0.00,VWS V13.01,2013-03-28 15:34:00,
2013-03-28 11:44:00,44.8,16.7,29.50,South,178,3.6,9.6,32,0.00,,---,0.00,VWS V13.01,2013-03-28 15:44:00,
2013-03-28 11:49:00,44.6,17.3,29.50,West,266,6.7,8.3,33,0.00,,---,0.00,VWS V13.01,2013-03-28 15:49:00,
2013-03-28 11:54:00,43.2,16.7,29.50,SSW,206,5.4,9.6,34,0.00,,---,0.00,VWS V13.01,2013-03-28 15:54:00,
2013-03-28 11:59:00,43.3,17.5,29.50,West,269,5.4,10.1,35,0.00,,---,0.00,VWS V13.01,2013-03-28 15:59:00,
2013-03-28 12:04:00,44.1,18.8,29.50,SSW,213,2.2,8.3,36,0.00,,---,0.00,VWS V13.01,2013-03-28 16:04:00,
2013-03-28 12:09:00,44.8,19.5,29.50,South,186,6.3,10.5,36,0.00,,---,0.00,VWS V13.01,2013-03-28 16:09:00,
2013-03-28 12:14:00,44.6,17.3,29.50,WNW,283,8.3,8.3,33,0.00,,---,0.00,VWS V13.01,2013-03-28 16:14:00,
2013-03-28 12:19:00,45.9,17.7,29.50,WSW,256,5.4,8.7,32,0.00,,---,0.00,VWS V13.01,2013-03-28 16:19:00,
2013-03-28 12:24:00,46.8,17.7,29.50,SW,219,4.0,8.7,31,0.00,,---,0.00,VWS V13.01,2013-03-28 16:24:00,
2013-03-28 12:29:00,47.3,16.7,29.50,South,181,3.6,8.3,29,0.00,,---,0.00,VWS V13.01,2013-03-28 16:29:00,
2013-03-28 12:34:00,47.5,16.0,29.50,South,180,5.8,10.1,28,0.00,,---,0.00,VWS V13.01,2013-03-28 16:34:00,
2013-03-28 12:39:00,47.8,17.1,29.50,SSW,195,7.6,8.7,29,0.00,,---,0.00,VWS V13.01,2013-03-28 16:39:00,
2013-03-28 12:44:00,48.6,16.1,29.50,SSW,203,6.3,15.4,27,0.00,,---,0.00,VWS V13.01,2013-03-28 16:44:00,
2013-03-28 12:49:00,48.9,16.4,29.50,South,173,5.8,8.7,27,0.00,,---,0.00,VWS V13.01,2013-03-28 16:49:00,
2013-03-28 12:54:00,49.5,16.9,29.50,SW,231,6.3,13.2,27,0.00,,---,0.00,VWS V13.01,2013-03-28 16:54:00,
2013-03-28 12:59:00,48.4,16.0,29.50,South,189,5.8,15.0,27,0.00,,---,0.00,VWS V13.01,2013-03-28 16:59:00,
2013-03-28 13:04:00,48.4,16.0,29.50,North,10,3.6,6.3,27,0.00,,---,0.00,VWS V13.01,2013-03-28 17:04:00,
2013-03-28 13:09:00,46.4,14.2,29.50,WNW,288,8.1,8.3,27,0.00,,---,0.00,VWS V13.01,2013-03-28 17:09:00,
2013-03-28 13:14:00,46.9,14.7,29.50,WSW,249,3.6,11.0,27,0.00,,---,0.00,VWS V13.01,2013-03-28 17:14:00,
2013-03-28 13:19:00,48.6,16.1,29.50,WNW,298,3.6,6.3,27,0.00,,---,0.00,VWS V13.01,2013-03-28 17:19:00,
2013-03-28 13:24:00,48.6,16.1,29.50,NW,306,7.6,11.0,27,0.00,,---,0.00,VWS V13.01,2013-03-28 17:24:00,
2013-03-28 13:29:00,47.5,16.0,29.50,South,189,5.4,12.8,28,0.00,,---,0.00,VWS V13.01,2013-03-28 17:29:00,
2013-03-28 13:34:00,48.0,15.6,29.50,WSW,252,3.6,7.6,27,0.00,,---,0.00,VWS V13.01,2013-03-28 17:34:00,
2013-03-28 13:39:00,48.6,15.2,29.50,South,190,5.4,10.5,26,0.00,,---,0.00,VWS V13.01,2013-03-28 17:39:00,
2013-03-28 13:44:00,49.8,16.3,29.50,SE,126,5.4,6.3,26,0.00,,---,0.00,VWS V13.01,2013-03-28 17:44:00,
2013-03-28 13:49:00,50.5,15.1,29.47,WNW,298,2.2,5.8,24,0.00,,---,0.00,VWS V13.01,2013-03-28 17:49:00,
2013-03-28 13:54:00,49.5,14.2,29.47,South,186,4.9,10.5,24,0.00,,---,0.00,VWS V13.01,2013-03-28 17:54:00,
2013-03-28 13:59:00,48.4,16.0,29.47,SSW,213,8.3,10.1,27,0.00,,---,0.00,VWS V13.01,2013-03-28 17:59:00,
2013-03-28 14:04:00,48.0,15.6,29.50,SSW,196,14.5,14.5,27,0.00,,---,0.00,VWS V13.01,2013-03-28 18:04:00,
2013-03-28 14:09:00,47.8,15.5,29.50,South,175,3.6,14.5,27,0.00,,---,0.00,VWS V13.01,2013-03-28 18:09:00,
2013-03-28 14:14:00,48.0,15.6,29.50,SSW,204,5.8,8.1,27,0.00,,---,0.00,VWS V13.01,2013-03-28 18:14:00,
2013-03-28 14:19:00,47.8,15.5,29.50,South,170,6.3,12.3,27,0.00,,---,0.00,VWS V13.01,2013-03-28 18:19:00,
2013-03-28 14:24:00,47.8,15.5,29.50,NW,304,7.6,8.7,27,0.00,,---,0.00,VWS V13.01,2013-03-28 18:24:00,
2013-03-28 14:29:00,48.2,14.9,29.50,SSW,199,3.6,7.6,26,0.00,,---,0.00,VWS V13.01,2013-03-28 18:29:00,
2013-03-28 14:34:00,49.3,15.9,29.47,SSW,207,6.3,11.0,26,0.00,,---,0.00,VWS V13.01,2013-03-28 18:34:00,
2013-03-28 14:39:00,49.3,14.0,29.47,WSW,248,5.8,7.6,24,0.00,,---,0.00,VWS V13.01,2013-03-28 18:39:00,
2013-03-28 14:44:00,48.9,13.7,29.47,SSW,210,2.7,8.7,24,0.00,,---,0.00,VWS V13.01,2013-03-28 18:44:00,
2013-03-28 14:49:00,51.3,15.7,29.50,SSW,196,6.3,10.5,24,0.00,,---,0.00,VWS V13.01,2013-03-28 18:49:00,
2013-03-28 14:54:00,52.2,15.5,29.50,WSW,255,3.1,10.1,23,0.00,,---,0.00,VWS V13.01,2013-03-28 18:54:00,
2013-03-28 14:59:00,51.3,15.7,29.50,South,182,3.6,8.7,24,0.00,,---,0.00,VWS V13.01,2013-03-28 18:59:00,
2013-03-28 15:04:00,51.6,16.0,29.47,SSE,150,8.3,8.3,24,0.00,,---,0.00,VWS V13.01,2013-03-28 19:04:00,
2013-03-28 15:09:00,52.3,15.7,29.47,South,173,5.4,8.7,23,0.00,,---,0.00,VWS V13.01,2013-03-28 19:09:00,
2013-03-28 15:19:00,50.2,11.8,29.47,WSW,240,0.0,9.6,21,0.00,,---,0.00,VWS V13.01,2013-03-28 19:19:00,
2013-03-28 15:24:00,50.0,14.6,29.47,SSE,158,7.6,10.5,24,0.00,,---,0.00,VWS V13.01,2013-03-28 19:24:00,
2013-03-28 15:29:00,51.1,12.5,29.47,South,173,5.4,11.9,21,0.00,,---,0.00,VWS V13.01,2013-03-28 19:29:00,
2013-03-28 15:34:00,49.8,11.5,29.50,SW,234,8.7,11.0,21,0.00,,---,0.00,VWS V13.01,2013-03-28 19:34:00,
2013-03-28 15:39:00,50.4,11.9,29.50,South,180,5.4,9.6,21,0.00,,---,0.00,VWS V13.01,2013-03-28 19:39:00,
2013-03-28 15:44:00,52.3,13.6,29.50,South,186,6.3,8.1,21,0.00,,---,0.00,VWS V13.01,2013-03-28 19:44:00,
2013-03-28 15:49:00,53.2,14.3,29.50,WSW,253,4.9,10.1,21,0.00,,---,0.00,VWS V13.01,2013-03-28 19:49:00,
2013-03-28 15:54:00,51.8,13.1,29.50,WSW,251,4.0,12.3,21,0.00,,---,0.00,VWS V13.01,2013-03-28 19:54:00,
2013-03-28 15:59:00,48.7,10.6,29.50,South,186,5.8,10.5,21,0.00,,---,0.00,VWS V13.01,2013-03-28 19:59:00,
2013-03-28 16:04:00,48.7,10.6,29.50,WSW,258,8.7,10.1,21,0.00,,---,0.00,VWS V13.01,2013-03-28 20:04:00,
2013-03-28 16:09:00,47.7,12.7,29.50,SSW,197,5.8,11.9,24,0.00,,---,0.00,VWS V13.01,2013-03-28 20:09:00,
2013-03-28 16:14:00,47.3,12.4,29.50,WNW,302,8.7,8.7,24,0.00,,---,0.00,VWS V13.01,2013-03-28 20:14:00,
2013-03-28 16:19:00,47.3,12.4,29.50,WSW,252,6.3,8.7,24,0.00,,---,0.00,VWS V13.01,2013-03-28 20:19:00,
2013-03-28 16:24:00,47.7,12.7,29.50,SSW,195,3.1,7.2,24,0.00,,---,0.00,VWS V13.01,2013-03-28 20:24:00,
2013-03-28 16:29:00,47.7,12.7,29.50,WSW,247,0.0,8.1,24,0.00,,---,0.00,VWS V13.01,2013-03-28 20:29:00,
2013-03-28 16:34:00,49.3,14.0,29.50,SSW,202,3.6,6.3,24,0.00,,---,0.00,VWS V13.01,2013-03-28 20:34:00,
2013-03-28 16:39:00,50.5,12.1,29.50,South,186,10.1,10.1,21,0.00,,---,0.00,VWS V13.01,2013-03-28 20:39:00,
2013-03-28 16:44:00,52.0,13.3,29.50,SSW,199,5.8,12.8,21,0.00,,---,0.00,VWS V13.01,2013-03-28 20:44:00,
2013-03-28 16:49:00,53.8,13.7,29.47,SSW,206,3.6,10.5,20,0.00,,---,0.00,VWS V13.01,2013-03-28 20:49:00,
2013-03-28 16:54:00,53.6,13.5,29.47,SSW,192,15.0,15.0,20,0.00,,---,0.00,VWS V13.01,2013-03-28 20:54:00,
2013-03-28 16:59:00,55.6,15.2,29.47,SW,230,4.0,15.0,20,0.00,,---,0.00,VWS V13.01,2013-03-28 20:59:00,
2013-03-28 17:04:00,55.8,15.3,29.50,South,181,5.4,8.7,20,0.00,,---,0.00,VWS V13.01,2013-03-28 21:04:00,
2013-03-28 17:09:00,52.3,13.6,29.50,West,279,4.0,10.5,21,0.00,,---,0.00,VWS V13.01,2013-03-28 21:09:00,
2013-03-28 17:14:00,54.3,14.1,29.50,SSW,195,9.6,9.6,20,0.00,,---,0.00,VWS V13.01,2013-03-28 21:14:00,
2013-03-28 17:19:00,54.7,14.4,29.50,South,177,6.3,11.0,20,0.00,,---,0.00,VWS V13.01,2013-03-28 21:19:00,
2013-03-28 17:24:00,56.1,15.6,29.50,SSW,194,8.1,17.0,20,0.00,,---,0.00,VWS V13.01,2013-03-28 21:24:00,
2013-03-28 17:29:00,55.0,14.7,29.50,South,175,5.4,14.5,20,0.00,,---,0.00,VWS V13.01,2013-03-28 21:29:00,
2013-03-28 17:34:00,56.5,15.9,29.50,SW,236,8.7,15.0,20,0.00,,---,0.00,VWS V13.01,2013-03-28 21:34:00,
2013-03-28 17:44:00,55.6,15.2,29.50,SW,216,6.3,15.0,20,0.00,,---,0.00,VWS V13.01,2013-03-28 21:44:00,
2013-03-28 17:49:00,58.1,16.1,29.50,South,182,6.3,10.1,19,0.00,,---,0.00,VWS V13.01,2013-03-28 21:49:00,
2013-03-28 17:54:00,57.6,15.6,29.50,WSW,253,7.6,11.0,19,0.00,,---,0.00,VWS V13.01,2013-03-28 21:54:00,
2013-03-28 17:59:00,56.8,16.2,29.50,South,172,3.1,10.1,20,0.00,,---,0.00,VWS V13.01,2013-03-28 21:59:00,
2013-03-28 18:09:00,55.6,15.2,29.53,WNW,297,5.8,10.1,20,0.00,,---,0.00,VWS V13.01,2013-03-28 22:09:00,
2013-03-28 18:14:00,50.7,12.2,29.53,SSW,211,7.6,11.0,21,0.00,,---,0.00,VWS V13.01,2013-03-28 22:14:00,
2013-03-28 18:19:00,48.7,10.6,29.53,SSW,208,5.4,10.5,21,0.00,,---,0.00,VWS V13.01,2013-03-28 22:19:00,
2013-03-28 18:24:00,48.6,10.4,29.53,South,190,5.8,8.7,21,0.00,,---,0.00,VWS V13.01,2013-03-28 22:24:00,
2013-03-28 18:29:00,48.4,10.3,29.53,SSW,195,5.8,10.1,21,0.00,,---,0.00,VWS V13.01,2013-03-28 22:29:00,
2013-03-28 18:39:00,47.7,12.7,29.53,South,181,3.6,8.3,24,0.00,,---,0.00,VWS V13.01,2013-03-28 22:39:00,
2013-03-28 18:44:00,47.7,12.7,29.53,South,182,5.4,10.5,24,0.00,,---,0.00,VWS V13.01,2013-03-28 22:44:00,
2013-03-28 18:49:00,47.3,12.4,29.53,SSW,204,2.7,7.2,24,0.00,,---,0.00,VWS V13.01,2013-03-28 22:49:00,
2013-03-28 18:54:00,46.8,11.9,29.53,SSW,205,5.4,8.7,24,0.00,,---,0.00,VWS V13.01,2013-03-28 22:54:00,
2013-03-28 18:59:00,46.8,11.9,29.53,South,175,7.6,10.5,24,0.00,,---,0.00,VWS V13.01,2013-03-28 22:59:00,
2013-03-28 19:04:00,46.6,14.4,29.53,South,185,3.1,7.6,27,0.00,,---,0.00,VWS V13.01,2013-03-28 23:04:00,
2013-03-28 19:09:00,46.6,14.4,29.53,SW,233,2.7,8.3,27,0.00,,---,0.00,VWS V13.01,2013-03-28 23:09:00,
2013-03-28 19:14:00,46.4,14.2,29.53,SSW,213,4.0,8.7,27,0.00,,---,0.00,VWS V13.01,2013-03-28 23:14:00,
2013-03-28 19:19:00,46.0,13.9,29.53,SW,232,5.4,6.7,27,0.00,,---,0.00,VWS V13.01,2013-03-28 23:19:00,
2013-03-28 19:24:00,46.0,14.8,29.53,SSW,199,2.7,7.6,28,0.00,,---,0.00,VWS V13.01,2013-03-28 23:24:00,
2013-03-28 19:29:00,46.0,14.8,29.53,South,179,5.4,8.7,28,0.00,,---,0.00,VWS V13.01,2013-03-28 23:29:00,
2013-03-28 19:34:00,46.0,14.8,29.53,SW,217,3.6,6.3,28,0.00,,---,0.00,VWS V13.01,2013-03-28 23:34:00,
2013-03-28 19:39:00,46.0,14.8,29.53,SSW,213,3.1,6.3,28,0.00,,---,0.00,VWS V13.01,2013-03-28 23:39:00,
2013-03-28 19:44:00,46.0,14.8,29.53,SSW,210,2.7,5.8,28,0.00,,---,0.00,VWS V13.01,2013-03-28 23:44:00,
2013-03-28 19:49:00,45.9,14.6,29.53,South,182,6.3,6.3,28,0.00,,---,0.00,VWS V13.01,2013-03-28 23:49:00,
2013-03-28 19:54:00,45.9,14.6,29.53,SW,222,3.1,8.3,28,0.00,,---,0.00,VWS V13.01,2013-03-28 23:54:00,
2013-03-28 19:59:00,45.9,14.6,29.53,South,171,4.0,6.3,28,0.00,,---,0.00,VWS V13.01,2013-03-28 23:59:00,
2013-03-28 20:04:00,46.0,14.8,29.53,South,184,2.2,6.3,28,0.00,,---,0.00,VWS V13.01,2013-03-29 00:04:00,
2013-03-28 20:09:00,45.9,14.6,29.53,SW,221,3.1,6.3,28,0.00,,---,0.00,VWS V13.01,2013-03-29 00:09:00,
2013-03-28 20:14:00,46.0,14.8,29.53,SSW,202,4.9,5.8,28,0.00,,---,0.00,VWS V13.01,2013-03-29 00:14:00,
2013-03-28 20:19:00,45.9,14.6,29.56,South,184,2.2,6.3,28,0.00,,---,0.00,VWS V13.01,2013-03-29 00:19:00,
2013-03-28 20:24:00,45.9,14.6,29.56,WSW,245,4.5,4.5,28,0.00,,---,0.00,VWS V13.01,2013-03-29 00:24:00,
2013-03-28 20:29:00,45.9,14.6,29.56,SW,230,3.1,5.4,28,0.00,,---,0.00,VWS V13.01,2013-03-29 00:29:00,
2013-03-28 20:34:00,45.9,14.6,29.56,SSW,201,2.7,6.3,28,0.00,,---,0.00,VWS V13.01,2013-03-29 00:34:00,
2013-03-28 20:39:00,45.9,14.6,29.56,SSW,208,4.0,5.4,28,0.00,,---,0.00,VWS V13.01,2013-03-29 00:39:00,
2013-03-28 20:44:00,45.7,14.5,29.56,SSW,207,2.7,4.9,28,0.00,,---,0.00,VWS V13.01,2013-03-29 00:44:00,
2013-03-28 20:49:00,45.7,14.5,29.56,SSW,201,0.0,5.8,28,0.00,,---,0.00,VWS V13.01,2013-03-29 00:49:00,
2013-03-28 20:54:00,45.7,14.5,29.56,SSW,211,2.2,5.4,28,0.00,,---,0.00,VWS V13.01,2013-03-29 00:54:00,
2013-03-28 21:04:00,45.7,15.3,29.56,SW,223,2.2,8.1,29,0.00,,---,0.00,VWS V13.01,2013-03-29 01:04:00,
2013-03-28 21:09:00,45.7,15.3,29.56,SW,217,4.0,5.4,29,0.00,,---,0.00,VWS V13.01,2013-03-29 01:09:00,
2013-03-28 21:14:00,45.5,15.1,29.56,SSW,193,2.7,5.8,29,0.00,,---,0.00,VWS V13.01,2013-03-29 01:14:00,
2013-03-28 21:19:00,45.5,15.1,29.56,SSW,195,3.1,4.9,29,0.00,,---,0.00,VWS V13.01,2013-03-29 01:19:00,
2013-03-28 21:24:00,45.5,15.1,29.56,SSW,193,6.3,6.3,29,0.00,,---,0.00,VWS V13.01,2013-03-29 01:24:00,
2013-03-28 21:29:00,45.3,14.9,29.56,SSW,195,3.1,6.3,29,0.00,,---,0.00,VWS V13.01,2013-03-29 01:29:00,
2013-03-28 21:34:00,45.3,14.9,29.56,SSW,199,2.2,4.9,29,0.00,,---,0.00,VWS V13.01,2013-03-29 01:34:00,
2013-03-28 21:39:00,45.3,14.9,29.56,SSW,209,0.0,5.8,29,0.00,,---,0.00,VWS V13.01,2013-03-29 01:39:00,
2013-03-28 21:44:00,45.3,14.9,29.56,SSW,209,2.7,5.4,29,0.00,,---,0.00,VWS V13.01,2013-03-29 01:44:00,
2013-03-28 21:49:00,45.3,14.9,29.56,SSW,209,4.0,5.8,29,0.00,,---,0.00,VWS V13.01,2013-03-29 01:49:00,
2013-03-28 21:54:00,45.1,14.8,29.56,SSW,210,3.6,5.4,29,0.00,,---,0.00,VWS V13.01,2013-03-29 01:54:00,
2013-03-28 21:59:00,45.1,14.8,29.56,SSW,205,4.9,6.3,29,0.00,,---,0.00,VWS V13.01,2013-03-29 01:59:00,
2013-03-28 22:04:00,45.1,14.8,29.56,SSW,205,3.1,4.9,29,0.00,,---,0.00,VWS V13.01,2013-03-29 02:04:00,
2013-03-28 22:09:00,45.1,14.8,29.56,SSW,204,3.6,5.8,29,0.00,,---,0.00,VWS V13.01,2013-03-29 02:09:00,
2013-03-28 22:14:00,45.0,14.6,29.56,SSW,205,2.7,5.8,29,0.00,,---,0.00,VWS V13.01,2013-03-29 02:14:00,
2013-03-28 22:19:00,45.0,14.6,29.56,South,191,3.6,6.3,29,0.00,,---,0.00,VWS V13.01,2013-03-29 02:19:00,
2013-03-28 22:24:00,45.0,14.6,29.56,SSW,201,3.6,7.6,29,0.00,,---,0.00,VWS V13.01,2013-03-29 02:24:00,
2013-03-28 22:29:00,45.0,14.6,29.56,SSW,208,3.1,6.3,29,0.00,,---,0.00,VWS V13.01,2013-03-29 02:29:00,
2013-03-28 22:39:00,45.0,14.6,29.56,SSW,207,3.1,4.0,29,0.00,,---,0.00,VWS V13.01,2013-03-29 02:39:00,
2013-03-28 22:49:00,45.0,14.6,29.56,SSW,208,3.6,5.4,29,0.00,,---,0.00,VWS V13.01,2013-03-29 02:49:00,
2013-03-28 22:54:00,45.0,14.6,29.56,SSW,208,3.1,5.4,29,0.00,,---,0.00,VWS V13.01,2013-03-29 02:54:00,
2013-03-28 22:59:00,45.0,14.6,29.56,SSW,207,2.7,5.4,29,0.00,,---,0.00,VWS V13.01,2013-03-29 02:59:00,
2013-03-28 23:04:00,45.0,14.6,29.56,SSW,207,3.6,4.9,29,0.00,,---,0.00,VWS V13.01,2013-03-29 03:04:00,
2013-03-28 23:09:00,45.0,14.6,29.56,SSW,208,3.6,5.8,29,0.00,,---,0.00,VWS V13.01,2013-03-29 03:09:00,
2013-03-28 23:14:00,44.8,14.5,29.56,SSW,208,2.7,5.8,29,0.00,,---,0.00,VWS V13.01,2013-03-29 03:14:00,
2013-03-28 23:24:00,44.8,14.5,29.56,SW,217,4.5,5.8,29,0.00,,---,0.00,VWS V13.01,2013-03-29 03:24:00,
2013-03-28 23:29:00,44.8,14.5,29.56,SSW,207,3.6,5.8,29,0.00,,---,0.00,VWS V13.01,2013-03-29 03:29:00,
2013-03-28 23:34:00,44.8,14.5,29.56,SSW,203,4.0,6.3,29,0.00,,---,0.00,VWS V13.01,2013-03-29 03:34:00,
2013-03-28 23:39:00,44.6,14.3,29.56,North,357,4.0,6.3,29,0.00,,---,0.00,VWS V13.01,2013-03-29 03:39:00,
2013-03-28 23:49:00,44.8,14.5,29.56,SSW,210,2.7,6.3,29,0.00,,---,0.00,VWS V13.01,2013-03-29 03:49:00,
2013-03-28 23:54:00,44.8,14.5,29.56,SSW,198,5.8,6.3,29,0.00,,---,0.00,VWS V13.01,2013-03-29 03:54:00,
2013-03-28 23:59:00,44.8,14.5,29.56,SW,222,3.6,10.1,29,0.00,,---,0.00,VWS V13.01,2013-03-29 03:59:00,